Simultaneous Nadir Overpasses (SNOs) Predictions

Prediction of SNOs between FY3D and TERRA Satellite Orbit:

Table of predicted SNOs for the next 14.0 days since TLE Epoch: 12/28/2024
Index Date (FY3D) Time (FY3D) Lat,Lon (FY3D) SZA (FY3D ) Date (TERRA) Time (TERRA) Lat,Lon (TERRA) SZA (TERRA ) Distance(km) Time Diff (sec)
1 12/28/2024 09:58:50 -76.81,-149.48 80.02 12/28/2024 09:59:35 -76.84,-149.42 80.00 3.11 45
2 12/28/2024 10:49:35 76.76, 18.04 99.93 12/28/2024 10:48:56 76.76, 17.98 99.93 1.40 39
3 12/30/2024 21:11:18 -76.83, 42.39 80.16 12/30/2024 21:11:33 -76.82, 42.50 80.17 2.76 15
4 12/30/2024 22:02:03 76.78,-150.10 99.79 12/30/2024 22:00:53 76.79,-149.96 99.79 3.68 70
5 01/02/2025 07:33:02 76.85, 66.91 99.67 01/02/2025 07:34:08 76.86, 66.95 99.67 1.60 66
6 01/02/2025 08:23:45 -76.81,-125.60 80.38 01/02/2025 08:23:30 -76.81,-125.57 80.39 0.89 15
7 01/04/2025 18:45:28 76.86,-101.15 99.42 01/04/2025 18:46:03 76.85,-101.14 99.40 1.22 35
8 01/04/2025 19:36:11 -76.81, 66.35 80.64 01/04/2025 19:35:25 -76.80, 66.37 80.65 1.34 46
9 01/07/2025 05:57:54 76.83, 90.92 99.09 01/07/2025 05:57:58 76.83, 90.78 99.09 3.32 4
10 01/07/2025 06:48:34 -76.65,-101.04 81.10 01/07/2025 06:47:22 -76.69,-102.01 81.05 25.55 72
11 01/09/2025 16:19:36 -76.88, 115.32 81.19 01/09/2025 16:20:32 -76.88, 115.29 81.19 0.76 56
12 01/09/2025 17:10:21 76.85, -77.25 98.78 01/09/2025 17:09:51 76.86, -77.12 98.78 3.28 30



Historial Predications of SNOs between FY3D and TERRA
